Aérodrome :
LOGIN :

S'inscrire | Disclaimer

   EN    FR    IT 

 










Légende :    VFR   VFR Marginal   IFR   IFR Intensif   IFR Très Intensif
Visi : 
Plafond : 
>= 8 km
>= 3000ft
5 à 8 km
1000 à 3000 ft
1500m à 5 km
500 à 1000 ft
800 à 1500m
200 à 500 ft
< 800m
< 200 ft
Symboles :   Orages  Brouillard  Fortes neiges  Fortes précipitations  Vent > 20 kt
SIGMETs :   Divers  Orages  Givrage  Turbulence  Onde Orograph.  Cendres Volcan.







- Altitude de l'aérodrome : 1249 ft


ETSN - Neuburg AB

DERNIER METAR :
  • 240420Z 35001KT 9999 MIFG FEW140 SCT250 13/12 Q1017 BLU+BLU+

METARs EXPIRÉS :
  • 240320Z 35001KT 9999 FEW120 BKN270 13/12 Q1017 BLU+
  • 240220Z 00000KT 9999 FEW260 13/11 Q1017 BLU+

TAF TAF ETSN
Valide du 24 à 05h jusqu'au 24 à 14h UTC


240400Z 2405/2414 25005KT 9999 NSW FEW120 BKN270
PROB30 2405/2406 VRB02KT 5000 MIFG SCT150 BY ETGL
Pas de NOTAMs connus pour ce terrain.



MET'MAP, la Météo Aéronautique d'un coup d'oeil ! - Copyright ORBIFLY Décembre 2007 - Disclaimer

ORBIFLY MET'MAP TEAM :

Programmation & Développement : Alexandra Zaïnal
Conception & Développement : Baudouin d'Aumeries
Co-Programmation & Développement : Marc-Olivier Méhu
Soutien technique & logistique : Manuel Goepfert

Contact : metmap@orbifly.com




SOURCES & CREDITS :

   NOAA